Weather History for Phuket, Thailand

Change the Weather History Date:

Wednesday, March 13, 2013

  Actual Average Record
Temperature  
Mean Temperature 84 °F -  
Max Temperature 91 °F 92 °F 100 °F (2003)
Min Temperature 77 °F 76 °F 70 °F (2014)
Cooling Degree Days 19    
Growing Degree Days 34 (Base 50)    
Moisture  
Dew Point 73 °F    
Average Humidity 68    
Maximum Humidity 94    
Minimum Humidity 52    
Precipitation  
Precipitation 0.00 in 0.13 in - ()
Sea Level Pressure  
Sea Level Pressure 29.88 in    
Wind  
Wind Speed 5 mph ()    
Max Wind Speed 15 mph    
Max Gust Speed -    
Visibility 5.1 miles    
Events      
Averages and records for this station are not official NWS values.
T = Trace of Precipitation, MM = Missing Value Source: Averaged Metar Reports

Daily Weather History Graph

Daily Weather History Graph

Search for Another Location

Airport:

Trip Planner

Search our weather history database for the weather conditions in past years. The results will help you decide how hot, cold, wet, or windy it might be!

Date:

Astronomy

Mar. 13, 2013 Rise Set
Actual Time 6:34 AM ICT 6:37 PM ICT
Civil Twilight 6:13 AM ICT 6:58 PM ICT
Nautical Twilight 5:49 AM ICT 7:23 PM ICT
Astronomical Twilight 5:25 AM ICT 7:47 PM ICT
Moon 7:21 AM ICT (3/13) 7:52 PM ICT (3/13)
Length of Visible Light 12h 45m
Length of Day
12h 03m
New Moon, 2% of the Moon is Illuminated
Mar 13
New Moon
Mar 20
First Quarter
Mar 27
Full
Apr 3
Last Quarter
Apr 10
New

Hourly Weather History & Observations

Time (ICT) Temp. Heat Index Dew Point Humidity Pressure Visibility Wind Dir Wind Speed Gust Speed Precip Events Conditions
12:00 AM 82.4 °F 89.5 °F 75.2 °F 79% 29.92 in 5.6 mi NNW 2.3 mph - N/A   Mostly Cloudy
12:30 AM 80.6 °F 86.2 °F 75.2 °F 84% 29.89 in 5.6 mi Calm Calm - N/A   Mostly Cloudy
1:00 AM 80 °F - 77 °F 88% 29.86 in 6 mi Calm Calm - -   Mist
1:00 AM 80.6 °F 86.2 °F 75.2 °F 84% 29.89 in 5.6 mi NE 4.6 mph - N/A   Mostly Cloudy
2:00 AM 78.8 °F - 73.4 °F 83% 29.86 in 5.6 mi Calm Calm - N/A   Mostly Cloudy
3:00 AM 77.0 °F - 75.2 °F 94% 29.86 in 5.6 mi Calm Calm - N/A   Mostly Cloudy
4:00 AM - - - N/A% 29.86 in 5.6 mi ENE 4.6 mph - N/A   Mostly Cloudy
5:00 AM - - - N/A% 29.86 in 5.6 mi Calm Calm - N/A   Mostly Cloudy
6:00 AM 77.0 °F - 73.4 °F 89% 29.86 in 5.6 mi SE 2.3 mph - N/A   Mostly Cloudy
6:30 AM 77.0 °F - 73.4 °F 89% 29.89 in 4.3 mi Calm Calm - N/A   Mostly Cloudy
7:00 AM 78 °F - 75 °F 89% 29.85 in 4 mi Calm Calm - -   Mist
7:00 AM 77.0 °F - 73.4 °F 89% 29.89 in 4.3 mi Calm Calm - N/A   Mostly Cloudy
7:30 AM 78.8 °F - 73.4 °F 83% 29.92 in 4.3 mi East 3.5 mph - N/A   Mostly Cloudy
8:00 AM 82.4 °F 88.2 °F 73.4 °F 74% 29.92 in 5.0 mi East 6.9 mph - N/A   Mostly Cloudy
8:30 AM 84.2 °F 90.9 °F 73.4 °F 70% 29.92 in 5.0 mi ENE 8.1 mph - N/A   Mostly Cloudy
9:00 AM 86.0 °F 93.4 °F 73.4 °F 66% 29.92 in 5.0 mi ENE 6.9 mph - N/A   Scattered Clouds
9:30 AM 86.0 °F 93.4 °F 73.4 °F 66% 29.95 in 5.0 mi NNE 4.6 mph - N/A   Scattered Clouds
10:00 AM 87.8 °F 95.6 °F 73.4 °F 62% 29.95 in 5.0 mi ENE 8.1 mph - N/A   Scattered Clouds
10:30 AM 87.8 °F 95.6 °F 73.4 °F 62% 29.95 in 5.0 mi ENE 9.2 mph - N/A   Scattered Clouds
11:00 AM 89.6 °F 98.2 °F 73.4 °F 59% 29.95 in 5.0 mi ENE 10.4 mph - N/A   Scattered Clouds
11:30 AM 89.6 °F 98.2 °F 73.4 °F 59% 29.95 in 5.0 mi WNW 9.2 mph - N/A   Mostly Cloudy
12:00 PM 89.6 °F 98.2 °F 73.4 °F 59% 29.92 in 5.0 mi WSW 6.9 mph - N/A   Scattered Clouds
12:30 PM 91.4 °F 100.1 °F 73.4 °F 55% 29.92 in 5.0 mi West 11.5 mph - N/A   Scattered Clouds
1:00 PM 90 °F - 75 °F 52% 29.88 in 6 mi West 8.1 mph - -   Scattered Clouds
1:00 PM 91.4 °F 100.1 °F 73.4 °F 55% 29.89 in 5.0 mi WNW 12.7 mph - N/A   Scattered Clouds
1:30 PM 91.4 °F 100.1 °F 73.4 °F 55% 29.89 in 5.0 mi West 10.4 mph - N/A   Scattered Clouds
2:00 PM 91.4 °F 102.5 °F 75.2 °F 59% 29.86 in 5.0 mi West 12.7 mph - N/A   Scattered Clouds
2:30 PM 91.4 °F 100.1 °F 73.4 °F 55% 29.86 in 5.0 mi NW 11.5 mph - N/A   Mostly Cloudy
3:00 PM 89.6 °F 98.2 °F 73.4 °F 59% 29.83 in 5.0 mi WNW 12.7 mph - N/A   Mostly Cloudy
3:30 PM 89.6 °F 98.2 °F 73.4 °F 59% 29.83 in 5.0 mi WNW 12.7 mph - N/A   Mostly Cloudy
4:00 PM 89.6 °F 96.2 °F 71.6 °F 55% 29.83 in 5.0 mi WNW 13.8 mph - N/A   Mostly Cloudy
4:30 PM 89.6 °F 96.2 °F 71.6 °F 55% 29.83 in 5.0 mi WNW 12.7 mph - N/A   Mostly Cloudy
5:00 PM 89.6 °F 96.2 °F 71.6 °F 55% 29.80 in 5.0 mi WNW 15.0 mph - N/A   Mostly Cloudy
5:30 PM 87.8 °F 93.8 °F 71.6 °F 58% 29.80 in 5.0 mi WNW 11.5 mph - N/A   Mostly Cloudy
6:00 PM 86.0 °F 93.4 °F 73.4 °F 66% 29.83 in 5.0 mi WNW 9.2 mph - N/A   Mostly Cloudy
6:30 PM 86.0 °F 91.8 °F 71.6 °F 62% 29.83 in 5.0 mi WNW 11.5 mph - N/A   Mostly Cloudy
7:00 PM 88 °F - 74 °F 54% 29.78 in 6 mi WNW 9.2 mph - -   Haze
7:00 PM 86.0 °F 91.8 °F 71.6 °F 62% 29.83 in 5.0 mi WNW 9.2 mph - N/A   Mostly Cloudy
7:30 PM 86.0 °F 91.8 °F 71.6 °F 62% 29.83 in 5.0 mi WNW 5.8 mph - N/A   Mostly Cloudy
8:00 PM 84.2 °F 89.6 °F 71.6 °F 66% 29.86 in 5.0 mi WNW 6.9 mph - N/A   Mostly Cloudy
8:30 PM 84.2 °F 89.6 °F 71.6 °F 66% 29.86 in 5.0 mi NW 5.8 mph - N/A   Mostly Cloudy
9:00 PM 84.2 °F 89.6 °F 71.6 °F 66% 29.89 in 5.0 mi NNW 6.9 mph - N/A   Mostly Cloudy
9:30 PM 84.2 °F 89.6 °F 71.6 °F 66% 29.89 in 5.0 mi Calm Calm - N/A   Mostly Cloudy
10:00 PM 80.6 °F 84.6 °F 71.6 °F 74% 29.92 in 5.0 mi Calm Calm - N/A   Mostly Cloudy
10:30 PM 80.6 °F 83.9 °F 69.8 °F 70% 29.92 in 5.0 mi WNW 5.8 mph - N/A   Mostly Cloudy
11:00 PM 80.6 °F 84.6 °F 71.6 °F 74% 29.92 in 5.0 mi Calm Calm - N/A   Mostly Cloudy
11:30 PM 78.8 °F - 71.6 °F 78% 29.92 in 5.0 mi Calm Calm - N/A   Mostly Cloudy